#timestamp,LO_Frequency,Hit,StdDev 
1663545615.0,286047002.8,N
1663545615.9,286047002.8,N
1663545635.8,286046991.1,N
1663545655.6,286046996.0,N
1663545675.4,286046995.6,N
1663545695.3,286046995.5,N
1663545715.1,286046992.9,N
1663545735.9,286047001.1,N
1663545755.7,286046999.0,N
1663545775.5,286046991.8,N
1663545795.4,286046993.5,N
1663545815.2,286046997.3,N
1663545835.0,286047001.1,N
1663545836.0,286047001.1,N
1663545855.8,286047001.1,N
1663545875.6,286046995.2,N
1663545895.5,286046989.4,N
1663545915.3,286046990.3,N
1663545935.1,286046991.0,N
1663545955.9,286046988.7,N
1663545975.7,286046995.5,N
1663545995.5,286046993.8,N
1663546015.4,286046991.3,N
1663546035.2,286046990.4,N
1663546055.1,286046991.8,N
1663546056.0,286046991.8,N
1663546075.8,286046991.7,N
1663546095.6,286046991.3,N
1663546115.5,286046991.4,N
1663546135.3,286046993.9,N
1663546155.1,286046993.8,N
1663546175.9,286046995.2,N
1663546195.7,286046993.6,N
1663546215.6,286046989.6,N
1663546235.4,286046988.5,Y
1663546255.2,286046998.2,P
1663546275.1,286047004.3,N
1663546276.0,286047004.3,N
1663546295.8,286046999.8,N
1663546315.7,286047000.9,N
1663546335.5,286046998.7,N
1663546355.3,286047004.1,N
1663546375.2,286047004.7,N
1663546395.9,286047001.3,N
1663546415.7,286047002.0,N
1663546435.6,286046995.0,N
1663546455.4,286046999.2,N
1663546475.2,286047000.1,N
1663546495.1,286046999.2,N
1663546515.9,286046996.9,N
1663546535.7,286046998.5,N
1663546555.9,286046998.1,N
1663546575.8,286047003.3,N
1663546595.6,286047001.9,N
1663546615.4,286047000.3,N
1663546635.3,286046998.8,N
1663546655.1,286046997.5,N
1663546675.9,286046997.0,N
1663546695.7,286046991.8,N
1663546715.5,286046994.5,N
1663546735.4,286046996.7,N
1663546755.2,286046997.4,N
1663546775.1,286047004.0,N
1663546776.0,286047004.0,N
1663546795.8,286047002.4,N
1663546815.6,286047004.4,N
1663546835.5,286047000.8,N
1663546855.3,286046994.5,N
1663546875.2,286046994.3,N
1663546895.9,286046995.6,N
1663546915.7,286046998.3,N
1663546935.6,286047003.6,N
1663546955.4,286047009.5,N
1663546975.3,286047008.5,N
1663546995.1,286047006.7,N
1663546996.0,286047006.7,N
1663547015.8,286047009.7,N
1663547035.7,286047005.5,N
1663547055.5,286047003.9,N
1663547075.3,286046997.1,N
1663547095.2,286047000.8,N
1663547115.0,286046995.6,N
1663547115.9,286046995.6,N
1663547135.8,286046995.3,N
1663547155.6,286046999.7,N
1663547175.4,286046995.6,N
1663547195.3,286046990.3,N
1663547215.1,286046989.9,N
1663547235.8,286046986.6,N
1663547255.7,286046993.9,N
1663547275.5,286046995.9,N
1663547295.4,286046994.9,N
1663547315.2,286046995.6,N
1663547335.0,286046998.3,N
1663547335.9,286046998.3,N
1663547355.8,286046994.9,N
1663547375.6,286046993.6,N
1663547395.5,286046992.0,N
1663547415.3,286046989.2,N
1663547435.1,286046994.6,N
1663547455.9,286046986.9,N
1663547475.7,286046989.5,N
1663547495.5,286046996.2,N
1663547515.4,286046996.1,N
1663547535.2,286046993.6,N
1663547555.1,286046998.5,N
1663547556.0,286046998.5,N
1663547575.8,286047004.0,N
1663547595.6,286047003.4,N
1663547615.5,286047004.9,N
1663547635.3,286047008.1,N
1663547655.2,286047006.5,N
1663547675.9,286047001.8,N
1663547695.7,286047007.9,N
1663547715.6,286047003.8,N
1663547735.4,286046998.2,N
1663547755.2,286047000.5,N
1663547775.1,286047002.5,N
1663547776.0,286047002.5,N
1663547795.8,286047007.6,N
1663547815.7,286047003.7,N
1663547835.5,286046995.4,N
1663547855.3,286046999.2,N
1663547875.2,286046992.3,N
1663547895.0,286046995.5,N
1663547895.9,286046995.5,N
1663547915.8,286046992.8,N
1663547935.6,286046991.3,N
1663547955.4,286047001.1,N
1663547975.3,286047000.0,N
1663547995.1,286047008.8,N
1663548015.8,286047006.1,N
1663548035.7,286046996.0,N
1663548055.5,286046994.7,N
1663548075.4,286046997.9,N
1663548095.2,286047001.3,N
1663548115.0,286046996.9,N
1663548115.9,286046996.9,N
1663548135.8,286046994.7,N
1663548155.6,286046987.0,N
1663548175.4,286046990.3,N
1663548195.3,286046998.7,N
1663548215.1,286046999.9,N
1663548235.9,286047007.8,N
1663548255.7,286047010.3,N
1663548275.5,286047005.2,N
1663548295.4,286047005.1,N
1663548315.2,286047008.6,N
1663548335.0,286047007.0,N
1663548335.9,286047007.0,N
1663548355.8,286047006.5,N
1663548375.6,286047007.0,N
1663548395.4,286047006.2,N
1663548415.3,286047006.8,N
1663548435.1,286047006.2,N
1663548455.9,286046988.1,N
1663548475.7,286046996.0,N
1663548495.5,286046992.9,N
1663548515.4,286046987.3,N
1663548535.2,286046992.9,N
1663548555.0,286046991.1,N
1663548555.9,286046991.1,N
1663548575.8,286046997.2,N
1663548595.6,286046999.1,N
1663548615.5,286046999.0,N
1663548635.3,286047000.7,N
1663548655.1,286046998.6,N
1663548675.9,286046996.7,N
1663548695.7,286046999.0,N
1663548715.5,286047000.9,N
1663548735.4,286047003.1,N
1663548755.2,286047009.6,N
1663548775.1,286047006.5,N
1663548776.0,286047006.5,N
1663548795.8,286047010.6,N
1663548815.6,286047016.8,N
1663548835.5,286047014.5,N
1663548855.3,286047011.9,N
1663548875.1,286047004.8,N
1663548895.9,286047001.6,N
1663548915.7,286047003.7,N
1663548935.6,286047001.0,N
1663548955.4,286047004.4,N
1663548975.2,286047004.2,N
1663548995.1,286047003.5,N
1663548996.0,286047003.5,N
1663549015.8,286047000.0,N
1663549035.6,286047004.9,N
1663549055.5,286047008.7,N
1663549075.3,286047005.9,N
1663549095.2,286046999.5,N
1663549115.9,286046990.3,N
1663549135.7,286046994.3,N
1663549155.6,286046991.8,N
1663549175.4,286046990.3,N
1663549195.2,286046999.2,N
